Location: Ferchesar
(52.6477°N, 12.4298°E)
Time: 17:51:57
(UTC+01:00)

Envisat - Pass Details

Date: 05 October 2022
Orbit: 763 x 765 km, 98.2° (Epoch: 30 November)

Event Time Altitude Azimuth Distance (km) Brightness Sun altitude
Rises 06:20:43 0° 11° (NNE) 3,248 6.5 -9.5°
Reaches altitude 10° 06:23:04 10° 7° (N) 2,317 5.6 -9.2°
Maximum altitude 06:28:00 51° 293° (WNW) 959 3.2 -8.4°
Drops below altitude 10° 06:32:54 10° 218° (SW) 2,300 5.1 -7.7°
Sets 06:35:14 0° 213° (SSW) 3,222 5.9 -7.3°
